This is the latest recevied weather packets stored in our database for station/object N0ZJT. If no packets are shown the sender has not sent any weather packets the latest 10 day(s).
| Time | Temp. | Humidity | Pressure | Rain* | Wind** | Luminosity | Snow |
|---|---|---|---|---|---|---|---|
| 1777753730 | 18.33° C | 27% | 978.5 hPa | 0 mm | - | - | - |
| 1777752890 | 18.33° C | 27% | 978.6 hPa | 0 mm | - | - | - |
| 1777751930 | 18.33° C | 28% | 978.9 hPa | 0 mm | - | - | - |
| 1777751090 | 18.33° C | 29% | 979.1 hPa | 0 mm | - | - | - |
| 1777750130 | 18.33° C | 26% | 979.3 hPa | 0 mm | - | - | - |
| 1777749290 | 18.33° C | 31% | 979.5 hPa | 0 mm | - | - | - |
| 1777748330 | 17.78° C | 28% | 979.8 hPa | 0 mm | - | - | - |
| 1777747490 | 17.78° C | 27% | 979.9 hPa | 0 mm | - | - | - |
| 1777746530 | 17.22° C | 29% | 980.2 hPa | 0 mm | - | - | - |
| 1777745690 | 17.22° C | 29% | 980 hPa | 0 mm | - | - | - |
| 1777744730 | 16.67° C | 27% | 980.4 hPa | 0 mm | - | - | - |
| 1777743890 | 16.67° C | 30% | 980.5 hPa | 0 mm | - | - | - |
| 1777742930 | 16.11° C | 30% | 980.6 hPa | 0 mm | - | - | - |
| 1777742090 | 15.56° C | 30% | 980.8 hPa | 0 mm | - | - | - |
| 1777741130 | 15° C | 31% | 980.7 hPa | 0 mm | - | - | - |
| 1777740290 | 14.44° C | 31% | 981.3 hPa | 0 mm | - | - | - |
| 1777739330 | 13.89° C | 34% | 981.2 hPa | 0 mm | - | - | - |
| 1777738490 | 13.33° C | 36% | 981.3 hPa | 0 mm | - | - | - |
| 1777737530 | 12.78° C | 37% | 981.5 hPa | 0 mm | - | - | - |
| 1777736690 | 12.22° C | 38% | 981.8 hPa | 0 mm | - | - | - |
| 1777735730 | 11.67° C | 42% | 981.7 hPa | 0 mm | - | - | - |
| 1777734890 | 11.11° C | 42% | 981.7 hPa | 0 mm | - | - | - |
| 1777733930 | 10.56° C | 47% | 981.8 hPa | 0 mm | - | - | - |
| 1777733090 | 10° C | 49% | 981.8 hPa | 0 mm | - | - | - |
| 1777732130 | 9.44° C | 51% | 981.9 hPa | 0 mm | - | - | - |
* Rain latest hour (hover to see other rain measurements)
** Current wind speed in m/s (hover to see current wind gust speed)